| time (UTC) | temp F | wind direction | speed MPH | gust MPH | rain 1hr in | rain 24hr in | rain mn in | humidity % | barometer mb |
| 20260504204239 | 81 | 189 | 11.0 | 13.0 | 0.00 | 0.00 | 0.00 | 56 | 1009.9 |
| 20260504203738 | 81 | 158 | 5.0 | 8.0 | 0.00 | 0.00 | 0.00 | 56 | 1010.1 |
| 20260504203235 | 81 | 250 | 4.0 | 6.0 | 0.00 | 0.00 | 0.00 | 56 | 1010.0 |
| 20260504202735 | 82 | 177 | 5.0 | 6.0 | 0.00 | 0.00 | 0.00 | 56 | 1010.4 |
| 20260504202233 | 82 | 174 | 7.0 | 9.0 | 0.00 | 0.00 | 0.00 | 56 | 1010.4 |
| 20260504201730 | 82 | 197 | 10.0 | 14.0 | 0.00 | 0.00 | 0.00 | 54 | 1010.7 |
| 20260504201227 | 81 | 185 | 4.0 | 5.0 | 0.00 | 0.00 | 0.00 | 55 | 1010.6 |
| 20260504200725 | 81 | 194 | 8.0 | 11.0 | 0.00 | 0.00 | 0.00 | 55 | 1011.0 |
| 20260504200220 | 81 | 195 | 2.0 | 2.0 | 0.00 | 0.00 | 0.00 | 54 | 1011.2 |
| 20260504195717 | 80 | 158 | 11.0 | 13.0 | 0.00 | 0.00 | 0.00 | 55 | 1011.1 |
| 20260504195213 | 80 | 209 | 2.0 | 2.0 | 0.00 | 0.00 | 0.00 | 56 | 1011.1 |
| 20260504194710 | 81 | 203 | 7.0 | 9.0 | 0.00 | 0.00 | 0.00 | 54 | 1011.2 |
| 20260504194206 | 82 | 174 | 3.0 | 5.0 | 0.00 | 0.00 | 0.00 | 54 | 1011.3 |
| 20260504193702 | 80 | 180 | 7.0 | 13.0 | 0.00 | 0.00 | 0.00 | 54 | 1011.5 |
| 20260504193200 | 80 | 198 | 7.0 | 11.0 | 0.00 | 0.00 | 0.00 | 54 | 1011.4 |
| 20260504192658 | 80 | 196 | 2.0 | 3.0 | 0.00 | 0.00 | 0.00 | 55 | 1011.5 |
| 20260504192156 | 81 | 246 | 5.0 | 8.0 | 0.00 | 0.00 | 0.00 | 53 | 1011.7 |
| 20260504191654 | 81 | 189 | 1.0 | 2.0 | 0.00 | 0.00 | 0.00 | 54 | 1011.7 |
| 20260504191150 | 81 | 149 | 4.0 | 8.0 | 0.00 | 0.00 | 0.00 | 54 | 1012.0 |
| 20260504190646 | 80 | 221 | 3.0 | 5.0 | 0.00 | 0.00 | 0.00 | 55 | 1011.8 |
| 20260504190143 | 80 | 203 | 6.0 | 8.0 | 0.00 | 0.00 | 0.00 | 54 | 1012.2 |
| 20260504185639 | 80 | 202 | 4.0 | 5.0 | 0.00 | 0.00 | 0.00 | 54 | 1011.9 |
| 20260504185136 | 80 | 214 | 2.0 | 3.0 | 0.00 | 0.00 | 0.00 | 54 | 1011.9 |
| 20260504184632 | 81 | 146 | 5.0 | 6.0 | 0.00 | 0.00 | 0.00 | 53 | 1012.0 |
| 20260504184127 | 80 | 169 | 5.0 | 8.0 | 0.00 | 0.00 | 0.00 | 53 | 1012.1 |
| 20260504183624 | 79 | 181 | 9.0 | 11.0 | 0.00 | 0.00 | 0.00 | 53 | 1012.1 |
| 20260504183122 | 79 | 207 | 10.0 | 13.0 | 0.00 | 0.00 | 0.00 | 53 | 1012.3 |
| 20260504182620 | 79 | 84 | 4.0 | 6.0 | 0.00 | 0.00 | 0.00 | 52 | 1012.3 |
| 20260504182117 | 79 | 200 | 8.0 | 15.0 | 0.00 | 0.00 | 0.00 | 52 | 1012.4 |
| 20260504181614 | 79 | 200 | 3.0 | 6.0 | 0.00 | 0.00 | 0.00 | 50 | 1012.7 |
| 20260504181111 | 79 | 154 | 6.0 | 9.0 | 0.00 | 0.00 | 0.00 | 51 | 1012.4 |
| 20260504180611 | 79 | 131 | 5.0 | 6.0 | 0.00 | 0.00 | 0.00 | 51 | 1012.5 |
| 20260504180109 | 79 | 190 | 6.0 | 9.0 | 0.00 | 0.00 | 0.00 | 50 | 1012.3 |
| 20260504175606 | 79 | 148 | 13.0 | 15.0 | 0.00 | 0.00 | 0.00 | 50 | 1012.6 |
| 20260504175103 | 78 | 146 | 6.0 | 9.0 | 0.00 | 0.00 | 0.00 | 50 | 1012.8 |
| 20260504174601 | 78 | 134 | 4.0 | 9.0 | 0.00 | 0.00 | 0.00 | 50 | 1013.1 |
| 20260504174057 | 78 | 251 | 3.0 | 3.0 | 0.00 | 0.00 | 0.00 | 50 | 1013.1 |
| 20260504173554 | 78 | 176 | 2.0 | 5.0 | 0.00 | 0.00 | 0.00 | 51 | 1013.0 |
| 20260504173052 | 77 | 189 | 7.0 | 13.0 | 0.00 | 0.00 | 0.00 | 50 | 1013.1 |
| 20260504172547 | 78 | 209 | 7.0 | 8.0 | 0.00 | 0.00 | 0.00 | 49 | 1013.1 |
| 20260504172044 | 76 | 218 | 7.0 | 9.0 | 0.00 | 0.00 | 0.00 | 52 | 1012.9 |
| 20260504171541 | 78 | 148 | 7.0 | 8.0 | 0.00 | 0.00 | 0.00 | 50 | 1013.2 |
| 20260504171038 | 77 | 155 | 5.0 | 7.0 | 0.00 | 0.00 | 0.00 | 51 | 1013.5 |
| 20260504170534 | 76 | 179 | 3.0 | 5.0 | 0.00 | 0.00 | 0.00 | 52 | 1013.5 |
| 20260504150918 | 70 | 169 | 5.0 | 6.0 | 0.00 | 0.00 | 0.00 | 64 | 1014.7 |
| 20260504150414 | 70 | 203 | 7.0 | 9.0 | 0.00 | 0.00 | 0.00 | 65 | 1014.7 |
| 20260504140841 | 68 | 180 | 7.0 | 9.0 | 0.00 | 0.00 | 0.00 | 70 | 1015.3 |
| 20260504140337 | 67 | 189 | 5.0 | 6.0 | 0.00 | 0.00 | 0.00 | 70 | 1015.1 |
| 20260504130806 | 65 | 159 | 8.0 | 11.0 | 0.00 | 0.00 | 0.00 | 74 | 1015.3 |
| 20260504130302 | 64 | 181 | 4.0 | 6.0 | 0.00 | 0.00 | 0.00 | 74 | 1015.2 |
| 20260504120225 | 63 | 191 | 2.0 | 2.0 | 0.00 | 0.00 | 0.00 | 76 | 1015.0 |
| 20260504110653 | 63 | 180 | 1.0 | 2.0 | 0.00 | 0.00 | 0.00 | 71 | 1014.8 |
| 20260504110149 | 63 | 196 | 2.0 | 2.0 | 0.00 | 0.00 | 0.00 | 72 | 1014.5 |
| 20260504100609 | 63 | 182 | 2.0 | 2.0 | 0.00 | 0.00 | 0.00 | 73 | 1015.1 |
| 20260504100108 | 63 | 196 | 1.0 | 1.0 | 0.00 | 0.00 | 0.00 | 73 | 1015.0 |
| 20260504082003 | 64 | 184 | 2.0 | 3.0 | 0.00 | 0.00 | 0.00 | 67 | 1015.4 |
| 20260504081500 | 65 | 159 | 6.0 | 10.0 | 0.00 | 0.00 | 0.00 | 66 | 1015.6 |
| 20260504080955 | 65 | 152 | 6.0 | 8.0 | 0.00 | 0.00 | 0.00 | 64 | 1015.6 |
| 20260504080452 | 65 | 189 | 5.0 | 8.0 | 0.00 | 0.00 | 0.00 | 64 | 1015.5 |
| 20260504050305 | 69 | 163 | 3.0 | 3.0 | 0.00 | 0.00 | 0.00 | 56 | 1017.4 |
| 20260504045757 | 69 | 184 | 3.0 | 3.0 | 0.00 | 0.00 | 0.00 | 56 | 1017.2 |
| 20260504045256 | 69 | 166 | 4.0 | 5.0 | 0.00 | 0.00 | 0.00 | 56 | 1017.4 |
| 20260504044754 | 69 | 204 | 2.0 | 2.0 | 0.00 | 0.00 | 0.00 | 56 | 1017.6 |
| 20260504044252 | 69 | 178 | 2.0 | 3.0 | 0.00 | 0.00 | 0.00 | 55 | 1017.6 |
| 20260504043748 | 69 | 184 | 3.0 | 3.0 | 0.00 | 0.00 | 0.00 | 55 | 1017.4 |
| 20260504043245 | 69 | 183 | 3.0 | 3.0 | 0.00 | 0.00 | 0.00 | 55 | 1017.4 |
| 20260504042743 | 69 | 175 | 5.0 | 7.0 | 0.00 | 0.00 | 0.00 | 55 | 1017.5 |
| 20260504042239 | 69 | 178 | 3.0 | 3.0 | 0.00 | 0.00 | 0.00 | 55 | 1017.6 |
| 20260504041736 | 70 | 181 | 3.0 | 3.0 | 0.00 | 0.00 | 0.00 | 54 | 1017.7 |
| 20260504041232 | 70 | 179 | 3.0 | 3.0 | 0.00 | 0.00 | 0.00 | 54 | 1017.6 |
| 20260504040728 | 70 | 137 | 4.0 | 5.0 | 0.00 | 0.00 | 0.00 | 54 | 1017.5 |
| 20260504040226 | 70 | 168 | 4.0 | 5.0 | 0.00 | 0.00 | 0.00 | 53 | 1017.6 |
| 20260504035722 | 70 | 198 | 6.0 | 8.0 | 0.00 | 0.00 | 0.00 | 53 | 1017.3 |
| 20260504035219 | 70 | 173 | 2.0 | 2.0 | 0.00 | 0.00 | 0.00 | 53 | 1017.6 |
| 20260504034716 | 71 | 182 | 5.0 | 7.0 | 0.00 | 0.00 | 0.00 | 52 | 1017.7 |
| 20260504034214 | 71 | 170 | 6.0 | 9.0 | 0.00 | 0.00 | 0.00 | 52 | 1017.4 |
| 20260504033711 | 71 | 190 | 1.0 | 1.0 | 0.00 | 0.00 | 0.00 | 51 | 1017.4 |
| 20260504033208 | 71 | 172 | 7.0 | 8.0 | 0.00 | 0.00 | 0.00 | 50 | 1017.5 |
| 20260504032705 | 71 | 171 | 6.0 | 7.0 | 0.00 | 0.00 | 0.00 | 50 | 1017.4 |
| 20260504032202 | 71 | 191 | 1.0 | 1.0 | 0.00 | 0.00 | 0.00 | 51 | 1017.5 |
| 20260504031659 | 71 | 196 | 4.0 | 7.0 | 0.00 | 0.00 | 0.00 | 50 | 1017.2 |
| 20260504031155 | 71 | 194 | 3.0 | 7.0 | 0.00 | 0.00 | 0.00 | 50 | 1017.4 |
| 20260504030652 | 71 | 177 | 2.0 | 3.0 | 0.00 | 0.00 | 0.00 | 50 | 1017.3 |
| 20260504030149 | 71 | 194 | 3.0 | 3.0 | 0.00 | 0.00 | 0.00 | 50 | 1017.3 |
| 20260504025646 | 72 | 180 | 2.0 | 2.0 | 0.00 | 0.00 | 0.00 | 49 | 1017.2 |
| 20260504025142 | 72 | 182 | 3.0 | 3.0 | 0.00 | 0.00 | 0.00 | 49 | 1017.4 |
| 20260504024640 | 72 | 163 | 4.0 | 5.0 | 0.00 | 0.00 | 0.00 | 49 | 1017.3 |
| 20260504024136 | 72 | 179 | 3.0 | 3.0 | 0.00 | 0.00 | 0.00 | 48 | 1017.4 |
| 20260504023633 | 72 | 205 | 3.0 | 3.0 | 0.00 | 0.00 | 0.00 | 48 | 1017.4 |
| 20260504023129 | 72 | 179 | 2.0 | 2.0 | 0.00 | 0.00 | 0.00 | 48 | 1017.4 |
| 20260504022626 | 73 | 179 | 3.0 | 3.0 | 0.00 | 0.00 | 0.00 | 48 | 1017.6 |
| 20260504022121 | 73 | 167 | 3.0 | 6.0 | 0.00 | 0.00 | 0.00 | 47 | 1017.6 |
| 20260504021620 | 73 | 195 | 2.0 | 3.0 | 0.00 | 0.00 | 0.00 | 47 | 1017.4 |
| 20260504021116 | 73 | 185 | 2.0 | 2.0 | 0.00 | 0.00 | 0.00 | 47 | 1017.3 |
| 20260504020613 | 73 | 162 | 3.0 | 3.0 | 0.00 | 0.00 | 0.00 | 46 | 1017.2 |
| 20260504020109 | 73 | 194 | 4.0 | 6.0 | 0.00 | 0.00 | 0.00 | 45 | 1017.1 |
| 20260504015606 | 74 | 148 | 2.0 | 3.0 | 0.00 | 0.00 | 0.00 | 45 | 1017.2 |
| 20260504015102 | 74 | 189 | 2.0 | 3.0 | 0.00 | 0.00 | 0.00 | 45 | 1017.0 |
| 20260504014558 | 74 | 160 | 2.0 | 3.0 | 0.00 | 0.00 | 0.00 | 45 | 1017.3 |
| 20260504014055 | 74 | 194 | 5.0 | 7.0 | 0.00 | 0.00 | 0.00 | 45 | 1017.0 |
| 20260504013553 | 75 | 197 | 3.0 | 7.0 | 0.00 | 0.00 | 0.00 | 44 | 1017.2 |
| 20260504013050 | 75 | 176 | 4.0 | 6.0 | 0.00 | 0.00 | 0.00 | 44 | 1017.1 |
| 20260504012547 | 75 | 181 | 3.0 | 5.0 | 0.00 | 0.00 | 0.00 | 44 | 1017.0 |
| 20260504012045 | 75 | 177 | 5.0 | 6.0 | 0.00 | 0.00 | 0.00 | 43 | 1017.1 |
| 20260504011541 | 75 | 185 | 6.0 | 8.0 | 0.00 | 0.00 | 0.00 | 43 | 1017.1 |
| 20260504011037 | 75 | 205 | 3.0 | 6.0 | 0.00 | 0.00 | 0.00 | 42 | 1017.0 |
| 20260504010533 | 76 | 180 | 3.0 | 3.0 | 0.00 | 0.00 | 0.00 | 42 | 1017.0 |
| 20260504010030 | 76 | 201 | 6.0 | 7.0 | 0.00 | 0.00 | 0.00 | 41 | 1016.9 |
| 20260504005526 | 76 | 181 | 6.0 | 8.0 | 0.00 | 0.00 | 0.00 | 40 | 1016.9 |
| 20260504005024 | 76 | 176 | 4.0 | 5.0 | 0.00 | 0.00 | 0.00 | 40 | 1017.0 |
| 20260504004522 | 76 | 197 | 4.0 | 6.0 | 0.00 | 0.00 | 0.00 | 40 | 1017.0 |
| 20260504004019 | 77 | 179 | 2.0 | 3.0 | 0.00 | 0.00 | 0.00 | 40 | 1016.8 |
| 20260504003515 | 77 | 143 | 5.0 | 7.0 | 0.00 | 0.00 | 0.00 | 40 | 1016.9 |
| 20260504003012 | 78 | 174 | 3.0 | 5.0 | 0.00 | 0.00 | 0.00 | 39 | 1016.8 |
| 20260504002509 | 78 | 188 | 2.0 | 2.0 | 0.00 | 0.00 | 0.00 | 39 | 1017.0 |
| 20260504002006 | 78 | 167 | 2.0 | 2.0 | 0.00 | 0.00 | 0.00 | 39 | 1016.8 |
| 20260504001503 | 78 | 144 | 4.0 | 5.0 | 0.00 | 0.00 | 0.00 | 39 | 1017.0 |
| 20260504000959 | 78 | 174 | 3.0 | 5.0 | 0.00 | 0.00 | 0.00 | 39 | 1017.2 |
| 20260504000457 | 78 | 163 | 6.0 | 8.0 | 0.00 | 0.00 | 0.00 | 39 | 1017.0 |
| 20260503235954 | 79 | 211 | 4.0 | 6.0 | 0.00 | 0.00 | 0.00 | 38 | 1017.0 |
| 20260503235452 | 79 | 192 | 4.0 | 5.0 | 0.00 | 0.00 | 0.00 | 37 | 1016.9 |
| 20260503234949 | 79 | 156 | 7.0 | 9.0 | 0.00 | 0.00 | 0.00 | 37 | 1017.0 |
| 20260503234446 | 80 | 184 | 6.0 | 7.0 | 0.00 | 0.00 | 0.00 | 37 | 1017.1 |
| 20260503233944 | 80 | 190 | 2.0 | 3.0 | 0.00 | 0.00 | 0.00 | 37 | 1017.0 |
| 20260503233440 | 79 | 201 | 2.0 | 3.0 | 0.00 | 0.00 | 0.00 | 37 | 1017.1 |
| 20260503232937 | 80 | 189 | 8.0 | 10.0 | 0.00 | 0.00 | 0.00 | 37 | 1017.5 |
| 20260503232434 | 80 | 190 | 0.0 | 1.0 | 0.00 | 0.00 | 0.00 | 38 | 1017.2 |
| 20260503231932 | 80 | 210 | 4.0 | 6.0 | 0.00 | 0.00 | 0.00 | 37 | 1017.3 |
| 20260503231429 | 80 | 193 | 1.0 | 2.0 | 0.00 | 0.00 | 0.00 | 37 | 1017.4 |
| 20260503230925 | 80 | 196 | 8.0 | 13.0 | 0.00 | 0.00 | 0.00 | 35 | 1017.2 |
| 20260503230422 | 81 | 213 | 8.0 | 9.0 | 0.00 | 0.00 | 0.00 | 35 | 1017.2 |
| 20260503225920 | 81 | 195 | 5.0 | 7.0 | 0.00 | 0.00 | 0.00 | 36 | 1017.2 |
| 20260503225416 | 82 | 152 | 7.0 | 13.0 | 0.00 | 0.00 | 0.00 | 36 | 1017.2 |
| 20260503224912 | 82 | 155 | 4.0 | 7.0 | 0.00 | 0.00 | 0.00 | 35 | 1017.5 |
| 20260503224409 | 82 | 180 | 3.0 | 5.0 | 0.00 | 0.00 | 0.00 | 35 | 1017.1 |
| 20260503223907 | 82 | 201 | 2.0 | 5.0 | 0.00 | 0.00 | 0.00 | 34 | 1017.3 |
| 20260503223405 | 82 | 190 | 4.0 | 6.0 | 0.00 | 0.00 | 0.00 | 33 | 1017.5 |
| 20260503222859 | 81 | 204 | 3.0 | 5.0 | 0.00 | 0.00 | 0.00 | 33 | 1017.6 |
| 20260503222358 | 82 | 176 | 6.0 | 10.0 | 0.00 | 0.00 | 0.00 | 33 | 1017.5 |
| 20260503221856 | 81 | 225 | 6.0 | 10.0 | 0.00 | 0.00 | 0.00 | 34 | 1017.6 |
| 20260503221355 | 82 | 207 | 2.0 | 3.0 | 0.00 | 0.00 | 0.00 | 34 | 1017.7 |
| 20260503220850 | 82 | 189 | 2.0 | 2.0 | 0.00 | 0.00 | 0.00 | 34 | 1017.7 |
| 20260503220347 | 83 | 200 | 2.0 | 3.0 | 0.00 | 0.00 | 0.00 | 34 | 1017.7 |
| 20260503215844 | 83 | 160 | 4.0 | 6.0 | 0.00 | 0.00 | 0.00 | 33 | 1017.8 |
| 20260503215341 | 83 | 183 | 8.0 | 9.0 | 0.00 | 0.00 | 0.00 | 33 | 1017.6 |
| 20260503214839 | 82 | 153 | 0.0 | 1.0 | 0.00 | 0.00 | 0.00 | 35 | 1017.8 |
| 20260503214336 | 83 | 187 | 6.0 | 9.0 | 0.00 | 0.00 | 0.00 | 34 | 1018.1 |
| 20260503213833 | 83 | 221 | 4.0 | 7.0 | 0.00 | 0.00 | 0.00 | 34 | 1018.1 |
| 20260503213331 | 82 | 123 | 3.0 | 3.0 | 0.00 | 0.00 | 0.00 | 33 | 1018.1 |
| 20260503212827 | 82 | 201 | 6.0 | 10.0 | 0.00 | 0.00 | 0.00 | 34 | 1018.1 |
| 20260503212326 | 84 | 197 | 3.0 | 3.0 | 0.00 | 0.00 | 0.00 | 33 | 1018.1 |
| 20260503211823 | 84 | 209 | 1.0 | 1.0 | 0.00 | 0.00 | 0.00 | 34 | 1018.5 |
| 20260503211319 | 84 | 222 | 2.0 | 2.0 | 0.00 | 0.00 | 0.00 | 35 | 1018.3 |
| 20260503210819 | 83 | 180 | 7.0 | 8.0 | 0.00 | 0.00 | 0.00 | 32 | 1018.3 |
| 20260503210317 | 83 | 146 | 6.0 | 7.0 | 0.00 | 0.00 | 0.00 | 32 | 1018.5 |
| 20260503205812 | 83 | 171 | 3.0 | 3.0 | 0.00 | 0.00 | 0.00 | 33 | 1018.6 |
| 20260503205309 | 83 | 145 | 1.0 | 2.0 | 0.00 | 0.00 | 0.00 | 33 | 1018.8 |
| 20260503204805 | 84 | 178 | 2.0 | 3.0 | 0.00 | 0.00 | 0.00 | 33 | 1018.9 |